Lid_Strength_Index
5 5 4 4 4 3 3 3 3 3 3 2 2 2 2 2 1 2 2 2 2 2 2 3 3 3 3 3 3 3 4 4 6 13 13 13 13 13 13 13 11 11 11
11 10 9 8 8 7 5 4 4 3 2 1 2 2 1 1 1 2 2 2 2 2 3 3 3 3 3 3 4 5 5 6 8 14 14 14 14 13 13 13 13 12 12
11 11 11 11 11 10 10 9 8 6 5 4 2 2 1 2 2 2 2 2 2 2 2 3 3 4 4 5 5 5 6 8 10 13 15 14 14 14 14 14 13 13 13
11 10 11 11 10 10 10 10 10 9 8 7 6 4 3 2 2 1 3 2 2 2 3 3 3 4 4 5 6 7 9 12 13 13 15 15 14 15 15 15 15 14 14
11 11 11 11 11 11 11 11 9 8 8 8 8 7 6 5 5 5 6 5 5 4 5 6 6 6 9 7 7 8 9 11 12 14 15 15 15 15 15 15 15 15 15
11 11 12 12 12 12 12 12 11 10 10 9 9 9 9 8 8 8 7 5 6 7 6 8 9 11 10 9 9 9 9 12 14 14 14 14 14 15 15 15 15 16 17
12 12 13 12 12 12 12 12 12 12 10 10 9 9 10 9 8 8 9 9 9 9 10 10 11 12 13 12 11 10 11 10 11 12 14 14 14 14 14 15 15 15 15
13 12 12 12 12 12 12 12 11 11 11 12 11 11 11 10 9 9 9 10 11 11 11 11 12 12 12 13 13 14 13 13 13 13 13 14 14 14 13 14 15 15 15
12 12 12 12 14 12 12 11 11 13 12 14 13 14 13 12 10 9 10 12 12 12 13 12 12 12 11 11 13 14 14 14 12 11 12 12 12 12 13 14 16 16 17
12 12 13 13 14 13 11 12 13 13 13 13 13 13 13 13 11 9 10 13 13 14 13 13 13 13 10 11 12 13 14 14 14 15 14 13 12 12 12 14 15 16 17
13 13 15 15 14 13 13 13 13 13 13 13 13 13 13 13 12 10 10 13 13 13 14 14 13 11 11 11 11 12 13 13 13 14 14 15 14 14 14 14 13 14 16
16 15 15 14 13 13 13 13 13 13 13 13 13 13 14 13 11 10 10 11 11 13 13 13 13 10 11 11 13 11 11 13 14 15 15 15 15 14 14 14 14 13 13
14 14 14 14 13 13 13 13 13 13 13 14 14 15 14 14 13 10 10 11 11 13 13 13 11 10 10 11 11 11 13 14 15 16 15 15 14 14 14 16 16 16 16
14 15 14 13 13 13 13 13 13 13 13 14 14 13 14 14 14 13 13 12 12 12 12 12 11 11 11 12 12 12 13 14 14 14 15 15 15 15 15 15 16 17 17
15 15 14 14 13 14 14 14 14 14 13 13 13 14 16 15 14 12 12 13 14 13 13 13 13 13 13 13 13 13 13 13 13 13 14 14 15 15 15 16 16 17 17
16 16 15 15 15 15 15 15 12 12 11 11 11 13 16 12 11 11 11 11 11 11 17 16 14 14 14 14 13 13 13 13 13 13 13 13 15 15 15 16 15 16 17
16 17 17 16 15 15 16 18 17 16 13 12 11 11 11 11 11 11 10 10 11 11 20 20 20 17 14 14 17 17 15 16 13 12 13 13 13 13 14 14 15 15 16
23 21 21 21 21 22 22 23 18 18 20 20 15 12 12 11 11 11 11 10 12 12 16 19 18 18 18 18 17 17 15 13 13 13 13 13 13 13 14 15 15 16 16
19 21 24 24 24 23 24 25 25 25 22 18 18 15 17 12 12 11 11 13 13 13 13 13 13 12 13 13 12 12 12 12 13 13 13 13 14 14 15 15 15 15 16
18 18 18 17 17 17 18 17 16 16 16 17 18 18 18 17 15 15 14 14 13 14 13 13 13 12 11 12 14 14 13 14 14 14 14 15 15 15 15 16 16 16 16
16 16 17 17 17 17 17 17 17 18 18 19 21 21 16 22 20 18 18 19 20 20 20 20 20 19 19 18 17 15 15 15 16 16 16 17 17 17 17 16 16 16 16
21 22 24 24 23 22 26 28 26 27 29 31 31 30 21 30 30 31 31 30 29 28 26 26 24 23 21 20 20 20 20 20 20 20 20 19 19 19 19 18 18 17 18
26 26 27 28 27 28 27 31 28 28 31 33 32 33 33 34 34 33 34 33 32 30 29 28 27 25 26 25 25 24 24 23 22 22 21 21 21 20 21 20 21 21 21
25 25 26 27 27 28 28 31 28 27 27 28 28 32 32 34 34 34 34 34 33 31 30 29 30 30 30 30 31 31 30 27 25 23 21 23 22 21 22 21 21 21 21
25 25 25 25 26 26 27 30 30 31 31 30 31 32 33 33 32 32 31 29 28 29 29 30 32 32 31 31 30 28 28 25 26 25 26 24 23 22 22 22 22 22 21
26 26 26 26 27 27 27 28 30 29 29 29 29 29 30 29 29 28 28 27 28 29 30 32 32 32 31 31 30 26 24 20 22 23 25 26 25 24 23 21 20 21 20